Date,TemperatureHighF,TemperatureAvgF,TemperatureLowF,DewpointHighF,DewpointAvgF,DewpointLowF,HumidityHigh,HumidityAvg,HumidityLow,PressureMaxIn,PressureMinIn,WindSpeedMaxMPH,WindSpeedAvgMPH,GustSpeedMaxMPH,PrecipitationSumIn
2013-1-1,49,46,43,49,40,28,99,79,51,29.85,29.69,7,2,14,0.00
2013-1-2,54,46,40,48,40,31,99,82,56,29.93,29.67,5,1,10,0.00
2013-1-3,44,38,28,32,29,26,94,71,54,30.01,29.89,4,0,7,0.00
2013-1-4,55,38,25,29,22,19,95,58,26,30.07,29.95,8,2,14,0.00
2013-1-5,56,40,26,28,23,19,77,53,24,30.14,29.96,4,1,8,0.00
2013-1-6,61,45,37,39,34,27,88,67,40,29.97,29.79,7,1,14,0.00
2013-1-7,59,41,30,32,29,26,86,64,33,30.17,29.94,6,1,12,0.00
2013-1-8,61,43,28,41,34,25,92,74,45,30.20,30.11,5,0,8,0.00
2013-1-9,66,53,37,52,46,35,94,78,56,30.20,30.12,6,1,11,0.00
2013-1-10,67,53,45,50,40,30,97,67,31,30.27,30.15,4,0,12,0.00
2013-1-11,50,44,41,44,42,40,99,93,73,30.15,29.92,4,1,7,0.00
2013-1-12,68,55,45,61,53,44,99,95,78,29.93,29.85,4,1,7,0.00
2013-1-13,75,64,58,62,59,57,99,85,63,29.89,29.80,10,2,17,0.00
2013-1-14,65,62,54,64,61,53,99,95,84,29.92,29.82,10,2,19,0.00
2013-1-15,54,44,40,53,43,40,99,98,96,29.98,29.83,8,2,19,0.00
2013-1-16,50,44,39,49,44,39,99,98,95,29.83,29.70,6,1,11,0.00
2013-1-17,50,42,33,49,42,32,99,98,95,30.52,29.65,13,3,26,1.04
2013-1-18,56,37,26,39,30,25,99,77,33,30.25,29.91,4,0,7,0.18
2013-1-19,58,40,24,32,28,23,96,66,32,30.22,29.89,6,1,11,0.00
2013-1-20,66,48,33,36,29,25,79,53,26,29.89,29.76,8,2,17,0.00
2013-1-21,62,44,30,38,26,12,90,53,25,29.84,29.63,12,2,24,0.02
2013-1-22,43,33,24,14,0,-13,43,26,10,30.00,29.73,9,2,19,0.00
2013-1-23,45,31,17,19,12,0,72,47,25,30.09,29.77,8,2,14,0.00
2013-1-24,41,31,23,25,12,-2,83,48,22,30.23,29.71,11,2,21,0.00
2013-1-25,25,23,19,24,14,4,94,70,44,30.24,29.84,8,1,13,0.00
2013-1-26,41,31,24,35,28,22,97,90,73,30.13,29.83,4,0,8,0.09
2013-1-27,47,35,26,30,25,20,79,69,49,30.31,30.12,7,1,11,0.00
2013-1-28,50,42,34,44,36,28,93,79,62,30.21,29.97,8,2,12,0.06
2013-1-29,75,58,45,58,51,44,99,80,54,29.99,29.79,8,3,14,0.00
2013-1-30,72,66,57,65,61,56,98,84,66,29.80,29.17,18,7,34,1.98
2013-1-31,57,44,35,56,26,16,94,53,30,29.75,29.21,14,5,29,0.25
2013-2-1,40,34,22,28,10,-2,68,40,18,30.10,29.61,16,4,28,0.05
2013-2-2,42,32,17,32,14,7,91,51,26,30.11,29.76,8,2,14,0.01
2013-2-3,51,40,32,36,28,21,96,65,34,29.77,29.59,12,2,24,0.01
2013-2-4,51,39,29,28,23,18,71,53,33,29.89,29.74,7,2,13,0.00
2013-2-5,66,47,35,36,31,27,78,56,30,29.74,29.65,8,2,14,0.00
2013-2-6,66,48,33,35,27,17,87,51,16,30.02,29.73,8,1,13,0.00
2013-2-7,43,38,35,37,33,25,98,81,58,30.07,29.78,6,2,12,0.39
2013-2-8,61,44,35,46,36,26,98,75,34,29.83,29.59,11,4,21,0.14
2013-2-9,62,43,32,26,19,5,69,44,12,30.09,29.82,8,2,15,0.00
2013-2-10,57,40,29,40,23,18,87,55,24,30.21,29.92,8,1,13,0.15
2013-2-11,57,49,42,56,48,40,99,96,86,29.92,29.70,8,2,12,0.07
2013-2-12,62,51,42,52,32,20,97,50,20,29.86,29.68,8,2,16,0.01
2013-2-13,49,44,40,45,42,33,98,90,64,29.71,29.40,8,1,16,0.26
2013-2-14,57,45,31,34,32,28,87,61,36,29.81,29.60,7,2,13,0.00
2013-2-15,65,48,31,44,33,26,96,61,25,29.84,29.67,11,2,17,0.00
2013-2-16,42,36,29,34,28,14,92,73,45,29.73,29.59,11,2,18,0.04
2013-2-17,42,30,22,16,8,1,64,40,19,30.00,29.70,14,4,26,0.01
2013-2-18,58,38,18,26,18,11,79,50,21,30.12,29.94,10,2,14,0.00
2013-2-19,51,41,36,44,33,19,96,76,44,29.96,29.61,11,3,18,0.24
2013-2-20,56,42,28,20,11,-2,63,32,10,29.88,29.74,8,2,16,0.00
2013-2-21,64,43,24,25,14,3,72,37,10,30.01,29.85,7,1,9,0.00
2013-2-22,43,35,33,34,33,24,97,91,49,30.07,29.87,5,1,9,0.46
2013-2-23,43,36,34,42,35,34,99,98,96,29.93,29.74,5,1,9,0.12
2013-2-24,67,51,41,46,33,19,99,59,17,30.12,29.89,10,2,21,0.04
2013-2-25,46,38,33,26,24,21,68,56,43,30.29,30.12,4,1,10,0.00
2013-2-26,39,36,32,39,34,24,99,91,64,30.21,29.68,8,2,14,0.89
2013-2-27,60,48,37,42,38,33,99,73,42,29.88,29.72,9,2,16,0.01
2013-2-28,51,43,34,38,28,24,81,56,36,30.68,29.78,11,3,20,0.00
2013-3-1,46,41,36,31,28,25,73,59,47,30.00,29.93,8,2,14,0.00
2013-3-2,50,39,33,28,24,19,72,55,40,30.01,29.89,8,2,14,0.00
2013-3-3,46,36,29,21,18,14,62,48,33,30.07,29.95,9,4,18,0.00
2013-3-4,58,40,25,20,12,0,62,37,10,30.19,30.05,9,2,15,0.00
2013-3-5,49,43,37,42,34,19,98,73,40,30.14,29.67,7,1,13,0.26
2013-3-6,48,40,35,40,28,22,98,65,44,30.17,29.67,17,5,32,0.71
2013-3-7,56,42,33,30,27,24,76,58,36,30.34,30.16,9,3,19,0.00
2013-3-8,59,42,27,27,23,19,82,52,22,30.39,30.27,10,2,17,0.00
2013-3-9,70,48,28,32,28,22,82,51,19,30.43,30.31,5,1,10,0.00
2013-3-10,72,53,36,38,32,28,74,48,21,30.39,30.26,7,1,13,0.00
2013-3-11,68,56,43,54,41,22,88,59,42,30.29,29.97,13,4,24,0.02
2013-3-12,69,59,46,59,48,30,99,71,27,30.06,29.83,12,4,24,1.05
2013-3-13,56,44,33,34,25,16,84,51,25,30.24,30.06,11,3,22,0.00
2013-3-14,55,42,29,18,15,9,55,35,17,30.33,30.21,11,3,17,0.00
2013-3-15,65,48,29,36,27,17,71,45,29,30.26,29.98,12,3,19,0.00
2013-3-16,80,64,49,55,45,36,73,52,30,29.98,29.75,13,4,23,0.01
2013-3-17,61,51,39,52,45,38,96,82,65,30.24,29.93,7,2,14,0.00
2013-3-18,41,38,37,39,37,36,98,96,91,30.25,29.93,6,1,13,0.33
2013-3-19,67,50,36,44,28,4,99,57,12,30.12,29.91,11,3,21,0.00
2013-3-20,60,49,39,24,12,3,40,23,12,30.19,29.86,10,2,17,0.00
2013-3-21,47,37,29,28,14,6,59,39,22,30.07,29.85,11,4,22,0.00
2013-3-22,54,38,22,20,13,7,63,39,16,30.15,30.04,7,2,14,0.00
2013-3-23,64,46,36,33,26,19,66,46,26,30.14,29.98,4,0,7,0.00
2013-3-24,43,39,35,38,35,30,96,87,62,30.01,29.63,8,2,15,0.67
2013-3-25,47,39,33,38,28,21,99,68,39,29.91,29.64,13,3,24,0.05
2013-3-26,48,40,32,28,25,23,70,56,40,30.22,29.91,11,3,19,0.00
2013-3-27,51,40,32,26,23,19,74,51,31,30.33,30.21,11,3,21,0.00
2013-3-28,57,42,26,26,22,19,77,48,24,30.37,30.26,11,2,19,0.00
2013-3-29,63,51,27,33,24,18,79,38,19,30.41,30.25,7,2,12,0.00
2013-3-30,71,54,37,41,32,23,78,48,21,30.31,30.15,6,1,11,0.00
2013-3-31,69,56,49,57,51,40,98,85,60,30.16,29.90,8,2,17,0.71
2013-4-1,71,59,47,54,44,36,99,64,29,30.07,29.92,11,2,22,0.01
2013-4-2,61,50,33,38,26,13,85,47,15,30.24,30.07,8,2,15,0.00
2013-4-7,73,67,58,48,44,40,65,44,32,29.92,29.79,10,4,17,0.78
2013-4-8,81,67,54,58,53,47,90,62,40,29.85,29.73,11,3,18,0.00
2013-4-9,87,72,57,59,55,51,86,57,32,29.89,29.75,8,2,15,0.00
2013-4-10,88,75,62,62,58,55,81,57,34,29.80,29.63,10,2,16,0.00
2013-4-11,83,75,61,65,61,57,88,62,47,29.68,29.50,11,5,19,0.00
2013-4-12,81,80,61,60,60,39,50,50,40,29.94,29.50,8,7,16,0.67
2013-4-13,78,63,43,44,37,26,80,41,16,30.16,29.95,8,1,14,0.00
2013-4-14,82,66,46,53,40,30,75,44,16,30.24,30.14,8,2,15,0.00
2013-4-15,69,61,56,59,56,52,97,85,69,30.34,30.16,4,1,8,0.18
2013-4-16,82,68,55,64,59,54,97,75,45,30.43,30.30,8,1,11,0.00
2013-4-17,85,71,60,63,59,56,91,68,42,30.36,30.24,5,1,11,0.00
2013-4-18,81,72,65,65,61,56,87,70,46,30.31,30.14,9,3,15,0.00
2013-4-19,68,67,66,63,62,60,86,85,77,30.15,30.07,8,5,20,0.00
2013-4-20,67,64,46,62,54,27,85,73,24,30.07,29.92,6,4,20,0.60
2013-4-21,64,52,43,39,35,29,72,52,35,30.28,30.07,8,2,17,0.00
2013-4-22,68,52,38,40,33,22,90,53,21,30.25,30.05,8,2,17,0.00
2013-4-23,75,58,47,53,46,39,88,67,42,30.08,29.91,6,2,13,0.01
2013-4-24,76,66,50,58,55,49,98,70,49,29.93,29.78,12,4,24,0.08
2013-4-25,74,60,47,57,37,16,77,48,12,30.09,29.82,8,2,16,0.00
2013-4-26,75,59,43,44,35,27,74,45,19,30.24,30.08,6,1,11,0.00
2013-4-27,71,61,54,54,48,42,84,64,48,30.16,30.05,6,1,9,0.00
2013-4-28,58,56,53,56,53,52,99,92,83,30.06,29.85,4,1,13,1.05
2013-4-29,73,62,54,62,58,54,99,88,64,29.86,29.77,4,1,8,0.19
2013-4-30,62,60,55,58,57,54,99,90,85,29.94,29.81,4,1,10,0.00
2013-5-1,62,62,58,58,58,54,87,86,85,29.94,29.92,4,1,11,0.00
2013-5-2,64,59,53,56,53,50,94,83,73,29.96,29.88,5,2,13,0.00
2013-5-3,70,59,50,54,50,43,97,74,51,29.89,29.78,7,2,14,0.00
2013-5-4,65,54,48,52,47,42,94,76,55,29.82,29.69,8,2,16,0.00
2013-5-5,56,53,49,55,49,44,98,87,74,29.71,29.57,7,3,17,0.19
2013-5-6,71,60,55,64,58,54,99,93,72,29.60,29.45,8,2,13,1.12
2013-5-7,75,61,54,61,55,48,99,83,44,29.58,29.48,8,1,14,0.04
2013-5-8,73,60,52,60,56,51,98,86,59,29.64,29.55,9,1,16,0.15
2013-5-9,84,67,50,63,56,50,99,71,37,29.70,29.62,7,1,14,0.01
2013-5-10,86,72,55,66,59,54,96,67,41,29.70,29.55,10,2,17,0.00
2013-5-11,83,72,62,64,62,60,97,71,46,29.58,29.42,9,2,16,0.52
2013-5-12,72,63,50,62,46,32,98,59,25,29.67,29.46,8,2,16,0.04
2013-5-13,71,55,39,42,34,24,91,50,20,29.81,29.67,9,1,19,0.00
2013-5-14,74,58,37,46,40,32,92,54,27,29.88,29.68,8,2,14,0.00
2013-5-15,90,78,54,64,58,45,76,52,37,29.70,29.54,8,3,14,0.00
2013-5-16,88,86,0,63,63,60,76,46,43,29.94,29.54,4,4,11,0.00
2013-5-17,92,75,59,67,62,57,96,68,35,30.03,29.93,6,1,13,0.01
2013-5-18,78,69,63,69,65,61,97,86,71,30.10,30.01,5,0,11,0.12
2013-5-19,79,70,65,72,66,62,97,89,73,30.08,29.98,8,2,14,0.05
2013-5-20,87,72,67,72,68,65,99,87,52,30.06,29.95,6,1,12,0.17
2013-5-21,93,76,67,74,70,66,99,82,47,30.00,29.87,6,2,14,0.01
2013-5-22,86,76,66,71,68,64,97,78,56,29.96,29.83,9,3,17,0.31
2013-5-23,73,68,63,67,65,61,99,92,74,29.90,29.76,21,10,121,0.33
2013-5-24,70,64,53,62,50,34,96,65,29,30.14,29.79,11,2,21,0.01
2013-5-25,78,61,42,44,38,32,90,47,22,30.23,30.08,7,1,14,0.00
2013-5-26,78,64,53,53,47,37,81,57,32,30.22,30.10,5,1,11,0.00
2013-5-27,83,68,52,60,55,50,94,65,38,30.22,30.07,8,2,13,0.00
2013-5-28,87,75,64,67,64,57,94,70,45,30.18,30.07,9,3,17,0.00
2013-5-29,88,76,61,68,64,59,93,68,45,30.18,30.09,8,3,14,0.00
2013-5-30,90,75,63,68,64,58,97,70,39,30.22,30.11,6,2,11,0.00
2013-5-31,88,77,65,70,66,61,96,72,47,30.17,30.04,7,2,12,0.00
2013-6-1,89,78,69,69,66,61,95,68,41,30.08,29.95,9,3,16,0.00
2013-6-2,84,75,69,71,68,11,99,79,59,29.98,29.85,11,3,18,0.20
2013-6-3,77,68,18,70,67,18,99,96,76,29.92,29.78,97,4,97,0.45
2013-6-4,77,69,63,67,65,61,99,89,65,30.04,29.90,5,0,72,0.00
2013-6-5,80,69,63,68,64,-8,96,84,65,30.08,29.95,6,0,8,0.14
2013-6-6,75,69,65,73,68,64,99,97,91,29.97,29.76,5,2,11,0.66
2013-6-7,73,71,68,71,69,67,99,94,87,29.93,29.73,6,2,13,0.27
2013-6-8,86,75,63,70,66,61,99,78,49,30.17,29.91,8,1,13,0.25
2013-6-9,92,78,66,73,69,66,99,78,45,30.24,30.12,9,1,14,0.02
2013-6-10,85,74,68,74,70,66,96,88,62,30.18,29.95,11,4,18,0.38
2013-6-11,87,77,68,71,66,60,99,72,42,30.08,29.99,6,2,13,0.04
2013-6-12,94,83,64,76,71,62,94,69,52,30.08,29.97,7,2,11,0.00
2013-6-13,95,79,68,76,70,65,96,77,41,29.98,28.75,9,2,17,0.25
2013-6-14,82,72,60,65,56,53,87,62,38,30.11,28.80,8,2,17,0.00
2013-6-15,87,74,57,65,60,56,97,66,37,30.23,30.12,5,1,11,0.00
2013-6-16,72,72,72,62,62,62,72,72,72,30.17,30.17,2,2,4,0.00
2013-6-24,91,80,0,74,71,62,88,71,52,29.92,29.85,8,3,15,0.97
2013-6-25,96,80,70,75,71,68,99,77,44,29.89,29.76,8,2,13,0.00
2013-6-26,94,77,68,74,70,65,97,81,50,29.80,29.66,8,2,21,0.17
2013-6-27,89,79,68,74,71,66,99,79,56,29.71,29.49,7,2,13,0.00
2013-6-28,93,80,70,76,72,69,99,79,49,29.53,29.37,8,2,16,0.59
2013-6-29,90,78,69,76,71,67,99,79,49,29.48,29.38,8,2,12,0.22
2013-6-30,77,76,70,72,72,69,97,87,86,29.96,29.48,4,2,8,0.22
2013-7-1,87,76,69,73,70,68,99,83,59,30.09,29.94,8,2,14,0.08
2013-7-2,80,74,71,74,71,70,98,90,78,30.27,30.08,8,3,20,0.22
2013-7-3,83,76,72,77,74,71,99,92,72,30.32,30.22,7,2,13,0.99
2013-7-4,84,75,73,74,73,70,95,93,63,30.30,29.90,10,0,14,0.24
2013-7-5,89,77,71,76,72,70,98,86,59,29.99,29.90,11,2,19,0.11
2013-7-6,90,78,71,74,72,69,99,83,52,29.98,29.84,11,2,17,0.06
2013-7-7,88,80,72,78,73,70,98,83,64,29.92,29.80,9,2,16,0.11
2013-7-8,92,80,71,76,72,66,99,78,44,29.92,29.83,4,1,8,0.14
2013-7-9,92,81,72,77,74,71,99,81,54,29.89,29.78,6,2,13,0.00
2013-7-10,91,81,72,76,73,71,99,78,59,29.83,29.67,11,2,19,0.04
2013-7-11,85,76,70,76,73,69,99,91,73,29.70,29.60,6,2,11,0.12
2013-7-12,82,73,68,72,69,66,99,87,65,29.77,29.62,6,1,11,0.01
2013-7-13,82,74,69,74,70,67,98,89,73,29.87,29.75,5,1,10,0.04
2013-7-14,92,79,72,74,72,70,99,81,51,30.03,29.87,8,1,15,0.02
2013-7-15,94,81,69,75,71,67,99,75,45,30.06,29.98,4,0,8,0.00
2013-7-16,97,82,68,75,71,67,99,73,41,30.02,29.94,4,0,8,0.20
2013-7-17,97,83,74,78,74,72,96,77,47,29.97,29.85,4,1,8,0.00
2013-7-18,99,83,72,78,75,72,99,78,43,29.90,29.77,4,0,16,0.01
2013-7-19,94,83,74,78,75,73,99,78,53,29.84,29.72,8,2,15,0.00
2013-7-20,91,79,74,77,74,68,98,85,58,29.76,29.65,7,2,11,0.04
2013-7-21,93,76,73,77,73,71,99,91,55,29.73,29.65,7,0,12,0.20
2013-7-22,89,78,71,76,73,71,99,86,61,29.70,29.56,9,2,15,0.01
2013-7-23,93,81,71,74,71,66,98,72,44,29.58,29.48,8,2,13,0.00
2013-7-24,94,81,69,72,69,66,98,70,43,29.61,29.49,6,1,11,0.00
2013-7-25,85,75,67,71,67,63,97,76,57,29.77,29.58,5,2,14,0.01
2013-7-26,87,76,66,69,66,63,99,75,49,29.84,29.75,7,1,11,0.00
2013-7-27,76,72,68,71,69,66,99,93,82,29.78,29.67,6,1,11,0.71
2013-7-28,88,76,69,73,70,68,99,84,54,29.73,29.65,7,1,15,0.22
2013-7-29,90,76,66,70,65,59,99,73,41,29.90,29.73,4,1,8,0.07
2013-7-30,90,76,66,69,63,58,91,67,39,29.97,29.87,4,1,9,0.00
2013-7-31,85,76,70,74,70,67,99,83,62,29.89,29.73,9,1,17,0.21
2013-8-1,92,78,71,75,72,69,99,84,52,29.73,29.60,4,1,52,0.01
2013-8-2,93,81,68,71,68,65,99,68,43,29.77,29.66,4,1,8,0.00
2013-8-3,93,79,69,78,71,68,99,79,49,29.75,29.65,7,1,12,0.00
2013-8-4,89,78,70,72,66,59,97,71,39,29.77,29.65,8,1,14,0.01
2013-8-5,86,75,66,70,66,60,86,73,53,29.82,29.72,7,2,13,0.00
2013-8-6,80,72,64,71,68,64,99,88,74,29.79,29.73,8,2,17,0.51
2013-8-7,88,77,70,74,70,67,99,82,56,29.83,29.76,8,2,14,0.00
2013-8-8,87,78,71,76,73,70,99,87,69,29.81,29.73,8,2,13,0.08
2013-8-9,93,80,74,78,75,71,99,85,56,29.79,29.72,8,2,14,0.06
2013-8-10,95,78,72,79,74,69,99,89,54,29.85,29.76,12,1,22,0.31
2013-8-11,94,80,71,78,73,12,99,82,10,29.85,29.76,73,1,107,0.00
2013-8-12,95,82,72,76,73,68,99,78,43,29.80,29.69,5,1,13,0.07
2013-8-13,91,76,72,77,73,70,99,90,59,29.70,29.54,6,1,12,0.37
2013-8-14,80,72,63,72,62,54,98,73,45,29.82,29.59,7,1,13,0.01
2013-8-15,80,68,57,62,57,54,99,71,42,29.90,29.81,7,1,11,0.00
2013-8-16,74,65,56,63,59,55,99,84,61,29.90,29.83,4,0,8,0.00
2013-8-17,61,28,0,58,58,58,91,41,91,29.93,29.86,0,0,0,0.57
2013-8-18,0,0,0,58,58,58,0,0,100,29.96,29.86,0,0,0,0.57
2013-8-19,0,0,0,58,58,58,0,0,100,29.95,29.89,0,0,0,0.00
2013-9-2,76,76,76,73,73,73,90,90,89,29.66,29.66,0,0,2,0.00
2013-9-3,93,82,70,76,71,65,99,70,49,29.78,29.62,4,1,10,0.00
2013-9-4,90,74,62,68,64,62,99,75,45,29.91,29.78,4,1,8,1.61
2013-9-5,91,75,63,72,62,50,99,70,25,29.92,29.85,4,0,8,0.00
2013-9-6,85,72,63,63,60,55,87,68,46,30.01,29.90,5,1,10,0.00
2013-9-7,85,71,59,68,64,57,99,78,53,29.94,29.78,7,1,11,0.00
2013-9-8,92,76,64,72,67,63,99,79,44,29.81,29.73,5,0,10,0.00
2013-9-9,92,77,66,74,70,66,99,81,49,29.96,29.80,5,1,10,0.00
2013-9-10,93,78,68,75,71,68,99,80,49,30.04,29.95,5,1,10,0.00
2013-9-11,93,80,69,75,71,68,99,77,54,30.01,29.88,8,2,11,0.00
2013-9-12,94,78,69,76,72,68,99,84,52,29.88,29.64,6,1,12,0.19
2013-9-13,86,74,63,70,61,52,99,69,37,29.74,29.59,8,2,14,0.00
2013-9-14,81,65,55,57,54,50,96,68,40,29.93,29.73,6,1,11,0.00
2013-9-15,83,66,51,64,58,51,99,80,47,30.03,29.91,5,1,9,0.00
2013-9-16,89,73,62,70,64,60,99,77,42,30.00,29.87,8,1,11,0.00
2013-9-17,80,67,59,61,56,52,94,70,42,30.12,30.00,6,1,12,0.00
2013-9-18,78,64,54,58,54,51,93,74,48,30.11,29.97,56,0,56,0.00
2013-9-19,73,62,56,65,59,54,96,89,72,29.99,29.88,2,0,4,0.00
2013-9-20,88,72,65,71,67,63,99,85,56,29.89,29.75,4,1,8,0.00
2013-9-21,76,68,64,72,68,63,99,98,81,29.76,29.52,7,1,13,0.37
2013-9-22,81,67,59,64,59,55,99,78,43,29.71,28.13,7,2,13,0.00
2013-9-23,74,67,55,58,53,50,90,63,47,29.87,29.71,4,1,9,0.00
2013-9-24,84,73,58,62,56,53,99,58,44,29.89,29.74,5,1,10,0.00
2013-9-25,71,63,55,64,60,54,99,91,72,29.75,29.68,4,0,6,0.06
2013-9-26,78,65,56,63,58,51,99,80,40,29.85,29.69,4,1,9,0.01
2013-9-27,80,64,53,61,55,10,99,77,10,29.99,29.85,4,1,11,0.00
2013-9-28,75,61,52,59,54,51,99,81,50,30.06,29.97,6,1,11,0.00
2013-9-29,76,66,54,60,56,53,99,72,50,29.98,29.84,5,1,8,0.00
2013-9-30,75,74,58,58,56,56,96,54,52,29.87,29.84,1,1,7,0.00
2013-10-1,78,67,54,64,60,54,99,81,62,29.92,29.83,2,0,4,0.00
2013-10-2,90,70,36,68,59,-15,99,74,10,29.94,29.85,111,3,111,0.24
2013-10-3,89,72,59,70,63,59,99,77,42,29.93,29.85,5,1,8,0.00
2013-10-4,93,73,59,68,63,59,99,74,37,29.97,29.89,4,1,8,0.02
2013-10-5,95,75,60,72,65,60,99,76,37,29.95,29.85,6,0,10,0.00
2013-10-6,88,73,62,70,65,60,99,78,49,29.88,29.74,8,2,11,0.00
2013-10-7,81,70,61,72,66,51,99,88,66,29.84,29.64,9,3,17,0.63
2013-10-8,68,60,55,52,48,46,79,66,52,30.03,29.84,9,2,17,0.00
2013-10-9,72,60,52,55,50,46,86,71,48,30.04,29.94,9,3,17,0.00
2013-10-10,70,62,55,62,57,48,99,84,74,29.94,29.78,157,2,157,0.02
2013-10-11,73,69,62,62,61,59,94,77,67,29.80,29.74,2,0,5,0.00
2013-10-12,76,70,57,65,62,57,99,79,64,29.92,29.79,4,1,12,0.00
2013-10-13,68,64,61,64,62,61,99,96,87,30.04,29.91,6,2,12,0.02
2013-10-14,68,62,59,62,60,58,99,94,79,30.07,29.99,5,2,12,0.04
2013-10-15,78,63,53,60,55,52,99,79,43,30.03,29.88,4,1,10,0.00
2013-10-16,82,67,56,64,59,53,99,77,47,29.90,29.76,5,1,8,0.00
2013-10-17,70,65,60,66,63,60,99,93,79,29.79,29.65,6,2,10,0.07
2013-10-18,80,62,50,65,54,47,99,78,39,29.87,29.71,4,1,10,0.00
2013-10-19,62,58,52,61,57,52,99,98,95,29.80,29.65,4,0,8,0.04
2013-10-20,74,55,43,55,42,36,99,68,27,29.92,29.74,6,1,14,0.01
2013-10-21,75,55,38,52,46,38,99,77,41,29.97,29.80,5,1,11,0.00
2013-10-22,70,61,55,59,56,51,99,82,64,29.81,29.61,3,1,6,0.00
2013-10-23,69,58,44,59,45,31,99,67,28,29.83,29.52,8,2,23,0.11
2013-10-24,61,46,32,37,33,29,92,62,37,29.98,29.82,8,1,20,0.00
2013-10-25,58,44,31,37,32,26,96,64,31,30.17,29.98,7,1,14,0.00
2013-10-26,63,44,27,37,31,25,97,64,28,30.15,29.87,9,2,15,0.00
2013-10-27,75,57,42,46,41,37,86,58,28,29.93,29.84,7,1,11,0.00
2013-10-28,73,57,45,56,50,43,98,80,49,30.06,29.91,4,0,8,0.00
2013-10-29,80,61,50,58,54,49,99,80,42,30.14,30.05,4,0,8,0.00
2013-10-30,86,65,54,61,56,52,98,76,41,30.09,29.96,6,1,12,0.00
2013-10-31,73,66,58,64,58,56,94,78,62,29.99,29.69,11,3,17,0.00
2013-11-1,70,67,59,67,64,59,99,88,71,29.70,29.48,14,4,24,0.61
2013-11-2,72,60,51,60,47,35,99,68,31,29.78,29.53,8,2,16,0.01
2013-11-3,67,52,42,39,36,32,77,56,30,30.16,29.78,8,2,17,0.00
2013-11-4,64,46,37,35,32,29,85,60,28,30.34,30.16,5,1,9,0.00
2013-11-5,60,47,35,51,39,29,99,74,56,30.36,30.23,4,1,11,0.00
2013-11-6,80,59,48,55,50,45,99,74,41,30.23,29.92,5,1,8,0.00
2013-11-7,69,55,44,57,47,32,99,76,37,29.94,29.77,9,2,17,0.00
2013-11-8,44,44,44,33,32,32,63,62,62,30.11,29.94,3,3,5,0.00
2013-11-9,58,46,44,33,31,28,62,57,32,30.16,29.98,4,3,11,0.00
2013-11-10,76,56,38,40,31,21,80,45,17,30.05,29.89,11,2,18,0.00
2013-11-11,67,49,30,34,27,22,82,47,19,30.15,29.93,4,1,8,0.00
2013-11-12,62,44,31,39,30,18,95,60,33,30.23,29.84,11,2,26,0.05
2013-11-13,54,34,22,20,18,12,79,54,19,30.33,30.22,8,1,14,0.00
2013-11-14,64,44,24,25,20,13,79,43,14,30.25,30.10,8,2,12,0.00
2013-11-15,62,48,32,49,33,21,95,60,28,30.14,30.00,6,1,9,0.05
2013-11-16,62,55,50,57,54,49,99,95,83,30.08,30.00,2,0,4,0.02
2013-11-17,58,57,56,58,57,56,99,99,99,30.02,29.68,4,2,9,0.01
2013-11-18,58,58,58,58,58,58,99,99,99,29.81,29.62,3,3,7,0.01
2013-11-19,58,58,58,58,58,58,99,99,99,30.09,29.80,3,3,7,0.01
2013-11-20,58,58,58,58,58,58,99,99,99,30.25,30.08,3,3,7,0.01
2013-11-21,58,58,58,58,58,58,99,99,99,30.29,30.18,3,3,7,0.01
2013-11-22,58,58,58,58,58,58,99,99,99,30.19,29.90,3,3,7,0.01
2013-11-23,58,58,58,58,58,58,99,99,99,30.01,29.86,3,3,7,0.01
2013-11-24,58,58,58,58,58,58,99,99,99,30.30,30.00,3,3,7,0.01
2013-11-25,58,52,0,58,58,58,99,88,99,30.33,29.87,3,3,7,0.01
2013-11-26,0,0,0,58,58,58,0,0,100,29.88,29.15,0,0,0,2.19
2013-11-27,0,0,0,58,58,58,0,0,100,29.71,29.08,0,0,0,2.19
2013-11-28,0,0,0,58,58,58,0,0,100,29.98,29.70,0,0,0,2.19
2013-11-29,0,0,0,58,58,58,0,0,100,30.14,29.97,0,0,0,2.19
2013-11-30,0,0,0,58,58,58,0,0,100,30.17,29.89,0,0,0,2.19
2013-12-1,0,0,0,58,58,58,0,0,100,29.89,29.57,0,0,0,2.19
2013-12-4,0,0,0,58,58,58,0,0,100,29.62,29.59,0,0,0,0.01
2013-12-5,0,0,0,58,58,58,0,0,100,29.65,29.55,0,0,0,0.01
2013-12-6,0,0,0,58,58,58,0,0,100,29.57,29.49,0,0,0,0.01
2013-12-7,0,0,0,58,58,58,0,0,100,29.97,29.53,0,0,0,0.01
2013-12-8,0,0,0,58,58,58,0,0,100,29.98,29.80,0,0,0,0.01
2013-12-9,0,0,0,58,58,58,0,0,100,29.80,29.58,0,0,0,0.01
2013-12-10,0,0,0,58,58,58,0,0,100,29.83,29.45,0,0,0,0.01
2013-12-11,0,0,0,58,58,58,0,0,100,29.96,29.80,0,0,0,0.01
2013-12-12,0,0,0,58,58,58,0,0,100,29.93,29.80,0,0,0,0.01
2013-12-13,0,0,0,58,58,58,0,0,100,29.89,29.77,0,0,0,0.01
2013-12-14,0,0,0,58,58,58,0,0,100,29.80,29.30,0,0,0,0.69
2013-12-15,0,0,0,58,58,58,0,0,100,29.61,29.25,0,0,0,0.69
2013-12-16,0,0,0,58,58,58,0,0,100,29.68,29.59,0,0,0,0.69
2013-12-17,0,0,0,58,58,58,0,0,100,29.64,29.40,0,0,0,0.69
2013-12-18,0,0,0,58,58,58,0,0,100,29.80,29.58,0,0,0,0.69
2013-12-19,0,0,0,58,58,58,0,0,100,29.83,29.73,0,0,0,0.69
2013-12-20,0,0,0,58,58,58,0,0,100,29.76,29.65,0,0,0,0.69
2013-12-21,0,0,0,58,58,58,0,0,100,29.68,29.56,0,0,0,0.69
2013-12-22,0,0,0,58,58,58,0,0,100,29.62,29.51,0,0,0,0.01
2013-12-23,0,0,0,58,58,58,0,0,100,29.72,29.53,0,0,0,0.01
2013-12-24,0,0,0,58,58,58,0,0,100,29.98,29.69,0,0,0,0.01
2013-12-25,0,0,0,58,58,58,0,0,100,30.06,29.89,0,0,0,0.01
2013-12-26,0,0,0,58,58,58,0,0,100,29.89,29.77,0,0,0,0.01
2013-12-27,0,0,0,58,58,58,0,0,100,29.99,29.87,0,0,0,0.01
2013-12-28,0,0,0,58,58,58,0,0,100,29.93,29.67,0,0,0,0.01
2013-12-29,0,0,0,58,58,58,0,0,100,29.68,29.28,0,0,0,0.01
2013-12-30,0,0,0,58,58,58,0,0,100,29.66,29.46,0,0,0,0.01
2013-12-31,0,0,0,58,58,58,0,0,100,29.88,29.64,0,0,0,0.01
2014-1-1,0,0,0,58,58,58,0,0,100,29.91,29.70,0,0,0,0.01